Blair, NE

3:09 AM CDT on May 24, 2017 (GMT -0500)
Blair Municipal

Weather History for KBTA - October, 2012

Change the Weather History Date:

Thursday, October 4, 2012

  Actual Average (KOMA) Record (KOMA)
Temperature  
Mean Temperature 52 °F -  
Max Temperature 57 °F 70 °F 92 °F (2005)
Min Temperature 43 °F 44 °F 28 °F (1935)
Degree Days  
Heating Degree Days 12    
Growing Degree Days 2 (Base 50)    
Moisture  
Dew Point 35 °F    
Average Humidity 58    
Maximum Humidity 84    
Minimum Humidity 36    
Precipitation  
Precipitation 0.08 in - - ()
Sea Level Pressure  
Sea Level Pressure 30.18 in    
Wind  
Wind Speed 16 mph (NW)    
Max Wind Speed 23 mph    
Max Gust Speed 36 mph    
Visibility 10 miles    
Events Rain , Thunderstorm    
Averages and records for this station are not official NWS values.
T = Trace of Precipitation, MM = Missing Value Source: NWS Daily Summary

Daily Weather History Graph

Daily Weather History Graph

Search for Another Location

Airport or City:

Trip Planner

Search our weather history database for the weather conditions in past years. The results will help you decide how hot, cold, wet, or windy it might be!

Date:

Astronomy

Oct. 04, 2012 Rise Set
Actual Time 7:24 AM CDT 7:00 PM CDT
Civil Twilight 6:57 AM CDT 7:27 PM CDT
Nautical Twilight 6:25 AM CDT 7:59 PM CDT
Astronomical Twilight 5:52 AM CDT 8:32 PM CDT
Moon 9:33 PM CDT (10/4) 11:46 AM CDT (10/4)
Length of Visible Light 12h 30m
Length of Day
11h 35m
Waning Gibbous, 82% of the Moon is Illuminated
Oct 4
Waning Gibbous
Oct 8
Last Quarter
Oct 15
New
Oct 21
First Quarter
Oct 29
Full

Hourly Weather History & Observations

Time (CDT) Temp. Windchill Dew Point Humidity Pressure Visibility Wind Dir Wind Speed Gust Speed Precip Events Conditions
12:15 AM 62.1 °F - 41.2 °F 46% 29.95 in 10.0 mi NNW 13.8 mph 20.7 mph N/A   Clear
12:35 AM 60.4 °F - 40.1 °F 47% 29.96 in 10.0 mi NNW 20.7 mph 25.3 mph N/A   Clear
12:55 AM 57.6 °F - 40.5 °F 53% 29.98 in 10.0 mi NW 19.6 mph 27.6 mph N/A   Clear
1:15 AM 55.8 °F - 40.5 °F 56% 29.98 in 10.0 mi NW 20.7 mph 31.1 mph N/A   Clear
1:35 AM 54.9 °F - 40.5 °F 58% 30.00 in 10.0 mi NW 21.9 mph 35.7 mph N/A   Clear
1:55 AM 53.6 °F - 40.5 °F 61% 30.01 in 10.0 mi NW 16.1 mph 25.3 mph N/A   Clear
2:15 AM 53.1 °F - 40.5 °F 62% 30.04 in 10.0 mi WNW 15.0 mph 23.0 mph N/A   Clear
2:35 AM 53.2 °F - 40.5 °F 62% 30.04 in 10.0 mi NW 13.8 mph 27.6 mph N/A   Clear
2:55 AM 53.1 °F - 41.0 °F 64% 30.07 in 10.0 mi WNW 13.8 mph 18.4 mph N/A Rain , Thunderstorm Light Thunderstorms and Rain
3:15 AM 51.1 °F - 43.5 °F 75% 30.05 in 10.0 mi NW 15.0 mph 23.0 mph 0.02 in Rain , Thunderstorm Heavy Thunderstorms and Rain
3:35 AM 50.4 °F - 44.2 °F 80% 30.08 in 10.0 mi WNW 13.8 mph 20.7 mph 0.05 in Rain , Thunderstorm Light Thunderstorms and Rain
3:55 AM 50.2 °F - 43.7 °F 78% 30.03 in 5.0 mi NNW 23.0 mph 32.2 mph 0.08 in Rain , Thunderstorm Heavy Thunderstorms and Rain
4:15 AM 48.6 °F - 43.9 °F 84% 30.03 in 10.0 mi NNW 15.0 mph 29.9 mph N/A Rain , Thunderstorm Light Thunderstorms and Rain
4:35 AM 48.4 °F - 43.0 °F 82% 30.06 in 10.0 mi NW 18.4 mph 25.3 mph N/A   Mostly Cloudy
4:55 AM 47.8 °F - 41.5 °F 79% 30.08 in 10.0 mi NW 21.9 mph 28.8 mph N/A   Overcast
5:15 AM 47.7 °F - 41.4 °F 79% 30.11 in 10.0 mi WNW 16.1 mph 26.5 mph N/A   Overcast
5:35 AM 47.1 °F - 41.2 °F 80% 30.11 in 10.0 mi NW 15.0 mph 23.0 mph N/A Rain Light Rain
5:55 AM 46.9 °F - 39.9 °F 77% 30.10 in 10.0 mi NW 21.9 mph 31.1 mph N/A   Overcast
6:15 AM 46.8 °F - 40.1 °F 78% 30.11 in 10.0 mi NW 19.6 mph 26.5 mph N/A   Overcast
6:35 AM 46.2 °F 38.5 °F 38.7 °F 75% 30.11 in 10.0 mi NW 20.7 mph 26.5 mph N/A Thunderstorm Overcast
6:55 AM 45.9 °F 40.8 °F 38.5 °F 75% 30.13 in 10.0 mi NW 10.4 mph 20.7 mph N/A   Overcast
7:15 AM 45.7 °F 37.8 °F 37.8 °F 74% 30.14 in 10.0 mi NW 20.7 mph 28.8 mph N/A   Overcast
7:35 AM 44.8 °F 36.9 °F 36.1 °F 72% 30.15 in 10.0 mi NW 19.6 mph 27.6 mph N/A   Mostly Cloudy
7:55 AM 43.9 °F 37.9 °F 36.1 °F 74% 30.17 in 10.0 mi NW 11.5 mph 19.6 mph N/A   Scattered Clouds
8:15 AM 43.7 °F 36.9 °F 36.0 °F 74% 30.17 in 10.0 mi NW 13.8 mph 21.9 mph N/A Thunderstorm Scattered Clouds
8:35 AM 44.4 °F 38.2 °F 36.3 °F 73% 30.18 in 10.0 mi NW 12.7 mph 17.3 mph N/A Thunderstorm Mostly Cloudy
8:55 AM 45.0 °F 37.9 °F 35.8 °F 70% 30.18 in 10.0 mi NW 16.1 mph 23.0 mph N/A   Mostly Cloudy
9:15 AM 45.7 °F 37.6 °F 35.2 °F 67% 30.19 in 10.0 mi NW 21.9 mph 28.8 mph N/A Thunderstorm Overcast
9:35 AM 45.7 °F 38.6 °F 34.9 °F 66% 30.21 in 10.0 mi NW 17.3 mph 27.6 mph N/A   Overcast
9:55 AM 46.2 °F 39.0 °F 34.3 °F 63% 30.21 in 10.0 mi NW 18.4 mph 27.6 mph N/A Thunderstorm Overcast
10:15 AM 46.4 °F 39.0 °F 34.7 °F 64% 30.22 in 10.0 mi NW 19.6 mph 26.5 mph N/A   Mostly Cloudy
10:35 AM 46.9 °F - 34.7 °F 62% 30.23 in 10.0 mi NW 18.4 mph 25.3 mph N/A   Mostly Cloudy
10:55 AM 47.8 °F - 34.7 °F 60% 30.23 in 10.0 mi NW 13.8 mph 24.2 mph N/A   Mostly Cloudy
11:35 AM 48.9 °F - 34.3 °F 57% 30.25 in 10.0 mi NNW 19.6 mph 26.5 mph N/A   Mostly Cloudy
11:55 AM 50.4 °F - 33.6 °F 53% 30.26 in 10.0 mi NW 17.3 mph 25.3 mph N/A   Mostly Cloudy
12:15 PM 51.1 °F - 33.3 °F 51% 30.26 in 10.0 mi NNW 17.3 mph 25.3 mph N/A   Mostly Cloudy
12:35 PM 52.0 °F - 33.4 °F 49% 30.26 in 10.0 mi NW 15.0 mph 23.0 mph N/A   Mostly Cloudy
12:55 PM 52.3 °F - 32.7 °F 47% 30.26 in 10.0 mi WNW 16.1 mph 21.9 mph N/A   Scattered Clouds
1:15 PM 53.2 °F - 32.9 °F 46% 30.26 in 10.0 mi NW 17.3 mph 25.3 mph N/A   Scattered Clouds
1:35 PM 54.7 °F - 32.4 °F 43% 30.25 in 10.0 mi WNW 17.3 mph 24.2 mph N/A   Scattered Clouds
1:55 PM 54.9 °F - 32.4 °F 42% 30.25 in 10.0 mi NW 13.8 mph 24.2 mph N/A   Scattered Clouds
2:15 PM 55.4 °F - 32.2 °F 41% 30.25 in 10.0 mi NW 19.6 mph - N/A   Scattered Clouds
2:35 PM 55.2 °F - 31.8 °F 41% 30.24 in 10.0 mi NW 13.8 mph 24.2 mph N/A   Scattered Clouds
2:55 PM 55.9 °F - 31.5 °F 39% 30.24 in 10.0 mi NW 10.4 mph 24.2 mph N/A   Clear
3:15 PM 56.5 °F - 31.3 °F 38% 30.23 in 10.0 mi NW 12.7 mph 21.9 mph N/A   Clear
3:35 PM 57.0 °F - 31.3 °F 38% 30.23 in 10.0 mi NW 12.7 mph 19.6 mph N/A   Clear
3:55 PM 56.7 °F - 30.9 °F 38% 30.23 in 10.0 mi NW 13.8 mph 20.7 mph N/A   Clear
4:15 PM 56.7 °F - 30.7 °F 37% 30.23 in 10.0 mi NW 13.8 mph 23.0 mph N/A   Clear
4:35 PM 56.8 °F - 30.2 °F 36% 30.24 in 10.0 mi NNW 15.0 mph 20.7 mph N/A   Clear
5:15 PM 54.9 °F - 30.4 °F 39% 30.24 in 10.0 mi NW 11.5 mph 19.6 mph N/A   Clear
5:35 PM 55.0 °F - 30.7 °F 40% 30.23 in 10.0 mi NW 18.4 mph 24.2 mph N/A   Clear
5:55 PM 54.0 °F - 30.7 °F 41% 30.24 in 10.0 mi NNW 10.4 mph 20.7 mph N/A   Clear
6:15 PM 53.1 °F - 30.2 °F 42% 30.24 in 10.0 mi NNW 11.5 mph - N/A   Clear
6:35 PM 52.0 °F - 30.9 °F 45% 30.24 in 10.0 mi NNW 12.7 mph 17.3 mph N/A   Clear
6:55 PM 51.3 °F - 30.2 °F 44% 30.25 in 10.0 mi NW 8.1 mph - N/A   Clear
7:15 PM 50.2 °F - 30.9 °F 48% 30.26 in 10.0 mi NW 5.8 mph - N/A   Clear
7:35 PM 50.0 °F - 31.1 °F 48% 30.26 in 10.0 mi NW 5.8 mph - N/A   Clear
7:55 PM 49.3 °F - 31.1 °F 50% 30.27 in 10.0 mi NW 6.9 mph - N/A   Clear
8:15 PM 48.6 °F - 31.6 °F 52% 30.27 in 10.0 mi NW 4.6 mph - N/A   Clear
8:35 PM 48.0 °F - 32.0 °F 54% 30.28 in 10.0 mi NW 5.8 mph - N/A   Clear
8:55 PM 48.4 °F - 31.6 °F 52% 30.28 in 10.0 mi NNW 6.9 mph - N/A   Clear
9:15 PM 47.8 °F - 31.6 °F 53% 30.28 in 10.0 mi NNW 6.9 mph - N/A   Clear
9:35 PM 47.5 °F - 31.6 °F 54% 30.29 in 10.0 mi NW 5.8 mph - N/A   Clear
9:55 PM 46.9 °F - 32.0 °F 56% 30.31 in 10.0 mi NW 5.8 mph - N/A   Clear
10:15 PM 46.4 °F 42.4 °F 32.0 °F 57% 30.31 in 10.0 mi NW 8.1 mph - N/A   Clear
10:35 PM 46.0 °F 41.4 °F 31.3 °F 56% 30.30 in 10.0 mi NW 9.2 mph - N/A   Clear
10:55 PM 45.7 °F 40.6 °F 31.1 °F 57% 30.30 in 10.0 mi NNW 10.4 mph - N/A   Clear
11:15 PM 45.7 °F 39.8 °F 30.6 °F 56% 30.30 in 10.0 mi NNW 12.7 mph - N/A   Clear
11:55 PM 43.7 °F 38.6 °F 30.2 °F 59% 30.30 in 10.0 mi NNW 9.2 mph - N/A   Clear